Location: Arcizac
(43.0933°N, 0.0112°E)
Time: 19:30:11
(UTC+00:00)

Okean-O - Pass Details

Date: 14 December 2019
Orbit: 639 x 641 km, 98.2° (Epoch: 24 January)

Event Time Altitude Azimuth Distance (km) Brightness Sun altitude
Rises 17:06:44 0° 142° (SE) 2,934 5.9 -7.5°
Reaches altitude 10° 17:09:04 10° 133° (SE) 2,029 5.0 -7.9°
Maximum altitude 17:13:02 34° 69° (ENE) 1,069 3.3 -8.5°
Drops below altitude 10° 17:17:02 10° 5° (N) 2,043 4.9 -9.2°
Sets 17:19:24 0° 356° (N) 2,956 5.8 -9.6°
